Torna al catalogo

SL-14 DEB

AttivoPO
NORAD 35400·DEBRIS·🇷🇺 Russia

Lanciato Sep 28, 1991 da Plesetsk Cosmodrome

Loading…

Prossimi Passaggi (prossime 24 ore)

TLE

ObsoletoSource: Space-Track

Epoca: Aug 31, 2026, 12:55 UTC

1 35400U 91068AW  26243.53833005  .00000072  00000-0  22672-3 0  9991
2 35400  82.9262 333.1452 0189986 204.0678 172.8556 12.85911837317417

Traccia SL-14 DEB in tempo reale con AllMySat

Download on the App Store